Location: Azul
(36.7830°S, 59.8500°W)
Time: 02:01:19
(UTC-03:00)

CAS-4A - Pass Details

Date: 01 November 2021
Orbit: 529 x 539 km, 43.0° (Epoch: 04 December)

Event Time Altitude Azimuth Distance (km) Brightness Sun altitude
Exits shadow 05:14:13 - 249° (WSW) 2,512 ? -8.2°
Reaches altitude 10° 05:16:05 10° 254° (WSW) 1,791 ? -7.9°
Maximum altitude 05:20:01 45° 327° (NNW) 731 ? -7.1°
Drops below altitude 10° 05:23:54 10° 40° (NE) 1,777 ? -6.4°
Sets 05:26:11 0° 46° (NE) 2,662 ? -6.0°
